Presure
205 201 191 208 196 198 196 180 179 178 212 234 218 201 193 206 195 187 180 182 175 184 175 185 173 168 177 178 172 170 170 158 177 179 170 175 176 170 170 185 164 184 197
195 205 222 208 195 197 171 210 186 185 179 210 205 202 193 200 192 186 187 173 175 183 186 172 171 159 174 179 161 161 169 172 161 152 180 176 173 182 174 193 194 173 218
194 209 200 183 203 208 194 196 164 199 173 215 204 186 207 189 174 175 179 169 175 181 178 166 179 179 167 173 163 162 173 185 149 176 157 195 138 183 181 162 177 192 210
194 188 200 182 202 205 172 197 160 198 181 215 202 205 209 188 183 182 178 163 172 180 161 181 167 158 154 167 154 153 196 148 172 177 171 154 161 200 199 187 190 196 190
184 199 171 187 196 204 190 179 197 177 182 216 202 198 197 194 189 179 173 177 170 172 170 172 160 169 161 160 180 176 187 160 181 170 173 152 161 176 190 176 174 195 193
190 183 203 171 168 188 171 174 187 185 201 198 199 210 189 183 171 177 176 176 174 172 161 171 155 155 178 163 161 171 171 164 173 173 156 202 193 201 193 191 191 194 219
184 185 186 169 171 177 197 175 183 181 179 214 191 190 174 178 183 177 161 184 178 165 149 165 163 178 185 171 161 166 160 183 192 185 198 184 162 197 191 189 192 195 207
184 182 188 191 190 182 194 182 186 206 216 203 195 193 189 189 192 179 193 188 156 157 155 162 174 178 183 168 174 180 178 180 163 188 187 203 188 196 194 192 189 192 214
188 176 196 192 178 197 176 198 214 218 193 193 199 178 193 173 173 157 159 155 159 179 179 177 177 164 187 181 185 171 170 166 178 186 189 192 197 187 196 192 195 209 212
191 188 178 180 187 181 181 234 214 178 173 199 190 189 192 175 167 174 163 171 174 161 166 179 160 183 181 157 164 178 196 194 184 201 209 193 194 189 188 191 203 206 211
191 191 193 193 205 195 240 207 199 194 182 173 179 182 164 160 188 183 186 163 160 165 190 184 181 179 189 187 182 177 164 187 188 194 193 187 195 195 198 203 204 203 222
237 211 229 240 221 236 212 203 176 177 180 176 177 183 178 172 189 163 174 189 187 180 172 175 169 190 179 177 166 195 191 185 192 196 193 192 195 199 219 202 209 220 204
198 188 200 223 235 233 196 185 183 180 185 189 178 179 178 174 180 192 172 171 168 185 182 178 181 174 189 177 194 191 191 198 199 197 199 205 197 213 202 225 226 219 223
201 203 193 193 189 193 206 211 185 181 186 190 193 198 196 183 186 174 179 181 178 178 183 183 183 177 191 191 189 194 194 191 195 198 202 211 208 212 224 216 215 215 195
193 195 185 191 207 189 187 189 189 188 180 177 180 180 180 180 173 187 176 182 185 181 178 178 196 194 197 195 194 205 203 207 208 217 220 220 221 226 225 219 224 177 187
228 220 193 198 191 186 188 184 196 194 186 193 196 193 188 185 182 180 182 180 201 197 196 197 194 197 202 201 195 208 205 230 241 247 228 225 220 224 216 201 186 195 188
196 233 234 209 195 190 195 195 190 190 188 189 191 201 199 190 198 189 183 199 200 204 202 200 199 202 211 243 242 261 252 252 247 256 263 238 203 193 202 193 187 208 185
215 199 192 217 217 205 206 195 189 190 191 186 189 190 192 193 194 198 199 201 203 212 208 216 245 238 239 235 234 203 216 225 211 203 204 192 196 199 201 191 187 186 187
190 204 215 204 184 198 205 223 217 218 208 217 217 234 234 233 233 235 231 223 233 195 231 229 212 213 214 212 213 199 185 194 193 198 197 186 192 195 192 183 185 196 197
185 196 203 198 202 208 204 195 194 192 193 195 193 193 199 203 202 202 214 215 219 206 203 209 193 184 190 187 183 185 191 193 193 192 199 198 204 204 198 198 200 213 216
195 203 191 211 213 197 204 203 200 209 202 209 180 183 196 195 195 194 198 187 185 190 191 193 193 190 186 193 191 195 192 205 202 197 201 190 201 191 204 209 212 211 204
192 206 193 199 204 203 206 197 194 203 195 197 195 197 202 211 214 230 224 210 204 205 203 207 212 207 205 202 204 201 195 194 200 198 201 201 202 206 218 214 205 224 220
197 196 213 195 200 201 203 212 212 219 198 199 186 207 194 195 200 235 229 223 217 213 212 208 205 202 203 200 196 203 199 206 206 196 211 210 213 222 221 218 201 222 212
192 193 192 202 198 192 199 205 211 218 195 207 203 195 217 207 209 208 198 220 220 216 216 220 214 212 207 208 209 211 217 218 215 224 231 222 216 208 228 218 220 235 235
191 184 195 194 202 194 203 207 178 210 214 211 214 212 206 199 195 203 211 215 204 215 226 218 216 221 217 214 215 215 221 232 208 236 224 232 223 215 226 225 233 212 233
200 194 196 201 206 202 194 194 203 207 211 215 223 199 206 204 203 165 209 207 214 215 212 217 212 216 225 223 248 244 239 229 227 210 220 227 228 222 202 191 226 237 244
Wind_Speed
55 64 54 59 54 52 52 42 47 46 48 37 35 34 41 31 35 37 43 42 49 45 42 43 46 54 49 52 58 63 68 75 66 69 74 53 58 77 79 62 60 65 60
60 60 54 56 54 56 35 36 42 40 42 35 39 40 39 33 36 41 36 44 47 45 45 47 45 65 53 57 68 65 71 70 76 63 70 79 80 57 69 58 61 80 59
58 58 57 28 58 55 48 39 44 39 44 39 44 44 39 38 48 42 37 47 43 45 42 46 46 46 58 59 69 71 66 62 50 76 53 57 48 66 70 67 79 63 63
63 49 59 33 61 54 34 39 47 44 46 45 44 46 40 39 37 44 45 49 46 44 51 49 51 67 71 65 75 74 58 52 77 76 80 66 63 59 56 63 64 65 66
49 65 35 31 48 59 51 45 49 50 52 47 48 48 45 37 41 46 47 44 46 48 50 49 62 57 68 73 61 65 59 79 67 79 72 67 79 76 65 74 76 67 69
64 45 67 36 40 53 38 42 56 55 49 46 51 49 47 41 49 50 50 49 50 50 58 53 67 69 66 74 75 71 74 71 66 75 74 65 65 63 64 65 67 69 61
65 62 60 40 39 39 58 46 52 53 48 51 50 52 46 51 53 55 49 51 47 54 62 59 64 65 60 65 73 75 72 64 64 65 67 66 78 66 67 66 68 69 68
65 58 69 64 71 59 64 59 61 62 52 53 55 54 53 50 57 43 61 46 62 65 65 66 65 63 64 70 74 67 69 68 83 71 70 68 67 69 70 69 68 71 63
76 50 81 77 54 81 54 69 64 49 49 50 58 45 50 43 32 53 55 57 62 58 59 61 64 69 59 62 61 74 77 86 74 72 68 70 70 70 76 72 72 70 66
77 75 55 62 73 66 61 49 49 44 43 59 45 50 53 38 45 44 57 55 55 62 65 63 70 61 64 72 74 68 72 71 67 78 73 72 70 71 71 73 77 71 65
72 76 77 76 76 70 49 48 46 48 50 44 46 47 48 49 53 48 52 64 65 67 64 58 63 66 62 62 68 69 78 67 70 74 72 70 76 77 79 79 72 69 63
45 68 61 51 50 46 45 50 50 49 48 50 50 52 53 53 58 58 56 56 55 56 59 65 72 66 67 69 77 73 70 69 76 78 74 75 77 77 75 73 72 64 67
39 46 46 45 45 44 46 47 47 52 54 60 56 54 52 54 56 56 59 60 67 59 61 64 64 71 76 72 76 72 75 81 82 80 81 80 76 72 75 68 65 65 64
33 37 46 42 41 34 37 50 47 51 52 53 49 57 58 53 54 61 58 58 61 63 62 67 68 71 73 71 71 79 78 76 79 81 80 85 78 77 68 68 66 65 69
39 43 48 43 45 45 42 42 44 46 50 54 54 55 58 62 63 60 62 63 64 65 66 72 76 74 75 71 74 81 80 83 84 85 79 77 72 68 66 65 65 72 71
34 42 41 42 45 44 46 48 51 52 54 59 61 61 59 59 61 64 67 68 74 73 70 75 72 77 79 80 76 82 77 78 72 64 67 65 67 65 65 69 73 71 72
29 26 38 44 44 46 48 51 51 51 54 56 57 65 66 65 67 69 68 70 69 70 69 74 75 78 81 66 63 57 58 55 55 50 49 56 67 68 66 70 72 72 75
27 32 32 35 43 51 56 55 51 54 58 58 59 60 64 62 67 72 71 73 76 77 71 77 56 64 58 59 58 68 63 57 64 66 64 68 71 71 71 73 75 76 78
33 31 34 38 40 42 44 44 52 53 59 59 63 63 64 65 66 64 65 67 59 66 58 54 63 62 62 65 63 68 69 72 73 73 73 72 77 76 77 79 83 86 84
37 34 38 40 38 41 46 48 50 51 53 55 56 58 61 61 63 65 63 63 64 64 64 60 63 66 64 70 69 71 72 76 76 77 79 79 79 79 80 84 86 89 86
40 43 42 37 38 44 46 48 49 48 53 54 57 60 64 65 66 68 65 65 65 67 68 68 68 68 68 73 76 79 78 81 81 81 81 79 82 81 88 89 90 90 92
47 48 46 45 47 46 47 51 53 52 56 56 60 60 62 62 64 63 68 71 71 72 73 74 71 73 74 76 79 82 81 82 82 84 87 86 89 91 93 92 88 90 89
51 52 50 48 48 51 57 61 62 62 58 58 63 59 67 69 69 58 63 68 71 73 73 76 75 77 77 79 82 85 84 89 90 83 92 93 94 94 92 93 87 90 89
56 55 55 52 54 55 61 66 67 67 61 61 60 64 64 68 68 73 72 66 70 73 75 77 78 78 81 84 87 88 89 90 91 88 84 84 89 88 90 88 91 98 98
57 55 59 58 60 62 66 65 66 73 75 72 69 67 65 70 71 72 73 78 73 74 74 78 80 81 83 87 86 89 89 90 91 81 86 92 90 91 91 88 96 86 100
66 65 65 65 65 62 64 66 72 73 75 79 75 67 71 70 73 64 81 78 84 83 81 80 82 81 85 87 79 81 74 84 80 84 87 94 94 88 82 85 97 106 111
Wind_Direction
240 243 259 247 259 261 269 259 265 271 276 236 231 234 239 220 224 235 249 253 262 266 267 277 268 271 280 277 276 277 281 287 289 288 293 299 300 302 303 306 305 302 310
250 240 244 252 261 264 252 280 283 278 278 251 233 235 237 229 226 241 245 257 262 266 267 264 269 271 278 278 277 284 280 286 290 298 298 288 297 300 305 300 300 302 311
241 242 243 257 259 258 265 264 257 280 272 242 243 264 224 231 250 249 242 257 261 264 265 260 275 276 272 277 274 278 287 287 292 286 302 299 297 304 298 309 300 305 316
240 252 247 249 255 253 248 261 259 280 278 247 240 233 221 245 249 251 250 257 259 264 260 272 261 268 277 276 283 287 293 295 290 293 293 305 308 304 304 301 306 311 306
248 243 244 251 252 256 266 264 271 266 278 241 246 239 237 232 236 245 251 254 257 257 259 264 265 269 270 277 282 282 289 290 291 291 298 308 302 299 303 299 300 308 308
247 259 246 247 245 258 259 262 277 279 277 261 253 228 240 231 246 244 247 248 253 257 260 262 271 275 281 275 279 283 282 295 297 294 303 306 306 305 303 305 306 308 308
251 258 252 257 264 268 267 273 275 272 266 231 261 250 255 254 243 251 261 252 249 257 277 259 263 278 277 276 282 280 291 293 304 301 310 302 300 305 303 303 306 310 310
249 256 254 253 257 270 267 276 277 271 239 243 254 253 253 258 249 258 249 257 260 266 273 266 269 275 279 276 281 284 290 293 291 305 304 306 304 307 304 306 307 307 305
246 258 250 254 266 257 270 271 270 241 254 256 249 257 253 265 264 261 255 263 263 268 272 273 272 276 279 281 290 284 285 285 298 300 303 305 304 306 306 305 305 306 306
245 246 259 265 258 262 268 246 246 252 254 248 258 263 260 249 247 252 259 259 262 269 264 270 275 273 279 288 284 286 297 301 296 309 300 303 305 304 303 303 304 302 303
243 249 252 256 255 258 250 247 246 251 254 257 260 261 250 255 262 259 261 256 267 270 278 281 272 276 291 290 286 284 286 299 301 304 302 301 303 302 301 300 300 299 297
241 246 247 249 248 245 239 236 244 249 251 254 258 258 257 255 263 254 260 272 275 270 273 284 280 291 280 281 282 294 298 297 300 301 299 300 300 298 299 297 298 297 296
243 242 248 249 245 233 237 239 241 244 244 248 254 257 260 260 263 271 262 265 268 280 276 274 279 277 289 285 294 297 299 301 300 299 298 297 297 296 295 295 295 295 298
234 240 244 241 237 236 249 247 243 247 252 256 261 263 264 262 265 261 268 272 271 272 280 282 282 279 287 291 294 298 299 298 296 297 297 298 297 296 293 294 294 296 298
244 243 243 242 249 241 238 240 242 244 247 252 253 255 256 260 262 275 271 277 280 278 278 279 284 286 291 292 292 295 294 294 295 293 293 292 292 289 290 293 292 297 296
270 263 247 251 250 250 251 250 256 257 259 264 268 270 270 270 273 273 275 276 279 279 281 283 286 290 294 293 291 291 292 290 287 287 287 287 287 289 291 294 294 296 296
270 277 260 265 255 256 259 260 260 262 263 265 266 269 271 271 275 272 272 278 278 283 284 285 287 288 288 288 286 285 288 287 286 286 285 289 291 292 294 295 294 292 295
287 271 266 271 266 267 269 267 264 269 272 268 272 274 277 277 279 280 282 283 283 281 284 281 281 281 284 285 286 289 291 289 292 292 294 295 297 296 296 296 296 296 297
272 280 278 269 266 267 270 269 266 269 272 273 272 270 272 272 272 274 275 277 280 285 278 279 284 286 287 289 289 292 293 296 296 297 298 296 297 296 295 294 296 295 295
267 272 277 273 273 274 271 267 265 266 268 270 270 272 274 277 279 280 280 281 281 283 284 283 286 283 287 287 288 289 292 294 295 295 296 294 292 293 292 294 295 296 294
278 282 271 280 278 270 271 272 273 276 274 277 272 274 277 278 278 278 279 278 279 281 283 285 286 285 284 289 288 289 290 292 292 292 292 291 292 292 295 296 297 298 296
280 286 275 285 288 283 283 272 268 268 273 277 279 279 280 281 280 282 280 279 280 279 280 281 282 283 284 286 287 288 289 290 290 291 292 293 293 294 296 296 295 297 298
280 281 281 279 284 287 289 293 287 290 272 274 274 277 278 279 282 289 286 284 284 284 284 284 286 286 286 284 283 285 286 286 287 289 289 290 291 293 293 293 293 297 297
276 278 279 282 283 278 285 288 293 290 273 283 279 276 288 282 283 291 285 289 287 286 286 285 284 283 284 285 285 285 285 286 288 289 291 290 291 292 294 294 297 299 300
276 273 281 283 284 284 287 287 277 292 290 287 287 287 286 280 281 288 293 292 280 288 289 284 285 288 287 284 285 286 289 291 286 288 292 288 288 290 293 299 304 294 303
278 279 280 282 281 282 280 282 288 287 290 285 284 283 289 286 286 287 290 290 292 292 291 292 288 289 292 290 293 290 293 290 284 285 292 292 294 296 291 294 302 304 306